Change the Weather History Date:

Saturday, October 6, 2012

  Actual Average Record
Temperature  
Mean Temperature 55 °F 54 °F  
Max Temperature 75 °F 67 °F 91 °F (1952)
Min Temperature 35 °F 42 °F 31 °F (1931)
Degree Days  
Heating Degree Days 10 11  
Month to date heating degree days 41 59  
Since 1 July heating degree days 221 321  
Cooling Degree Days 0 0  
Month to date cooling degree days 0 0  
Year to date cooling degree days 232 197  
Growing Degree Days 4 (Base 50)    
Moisture  
Dew Point 22 °F    
Average Humidity 38    
Maximum Humidity 64    
Minimum Humidity 11    
Precipitation  
Precipitation 0.00 in 0.07 in 0.99 in (1981)
Month to date precipitation 0.00 0.40  
Year to date precipitation 22.49 23.91  
Snow  
Snow 0.00 in - - ()
Month to date snowfall 0.0  
Since 1 July snowfall 0.0  
Since 1 September snowfall 0.0  
Snow Depth 0.00 in    
Sea Level Pressure  
Sea Level Pressure 30.12 in    
Wind  
Wind Speed 9 mph (NE)    
Max Wind Speed 22 mph    
Max Gust Speed 29 mph    
Visibility 10 miles    
Events      
T = Trace of Precipitation, MM = Missing Value Source: NWS Daily Summary

Daily Weather History Graph

Daily Weather History Graph

Search for Another Location

Airport or City:

Trip Planner

Search our weather history database for the weather conditions in past years. The results will help you decide how hot, cold, wet, or windy it might be!

Date:

Astronomy

Oct. 06, 2012 Rise Set
Actual Time 7:17 AM PDT 6:41 PM PDT
Civil Twilight 6:47 AM PDT 7:11 PM PDT
Nautical Twilight 6:13 AM PDT 7:45 PM PDT
Astronomical Twilight 5:38 AM PDT 8:19 PM PDT
Moon 10:49 PM PDT (10/6) 1:29 PM PDT (10/6)
Length of Visible Light 12h 23m
Length of Day
11h 24m
Waning Gibbous, 64% of the Moon is Illuminated
Oct 6
Waning Gibbous
Oct 8
Last Quarter
Oct 15
New
Oct 21
First Quarter
Oct 29
Full

Hourly Weather History & Observations

Time (PDT) Temp. Windchill Dew Point Humidity Pressure Visibility Wind Dir Wind Speed Gust Speed Precip Events Conditions
12:53 AM 48.0 °F - 24.1 °F 39% 30.17 in 10.0 mi WNW 4.6 mph - N/A   Clear
1:53 AM 39.9 °F - 25.0 °F 55% 30.18 in 10.0 mi Calm Calm - N/A   Clear
2:53 AM 37.9 °F 35.5 °F 24.1 °F 57% 30.18 in 10.0 mi West 3.5 mph - N/A   Clear
3:53 AM 37.9 °F 35.5 °F 24.1 °F 57% 30.17 in 10.0 mi West 3.5 mph - N/A   Clear
4:53 AM 36.0 °F - 24.1 °F 62% 30.16 in 10.0 mi Calm Calm - N/A   Clear
5:53 AM 37.9 °F 35.5 °F 25.0 °F 60% 30.17 in 10.0 mi WNW 3.5 mph - N/A   Clear
6:53 AM 37.0 °F - 25.0 °F 62% 30.17 in 10.0 mi Calm Calm - N/A   Clear
7:53 AM 39.0 °F - 28.0 °F 65% 30.17 in 10.0 mi Calm Calm - N/A   Clear
8:53 AM 50.0 °F - 28.9 °F 44% 30.17 in 10.0 mi WNW 4.6 mph - N/A   Clear
9:53 AM 63.0 °F - 23.0 °F 22% 30.16 in 10.0 mi East 9.2 mph 18.4 mph N/A   Clear
10:53 AM 66.0 °F - 23.0 °F 20% 30.15 in 10.0 mi East 13.8 mph 20.7 mph N/A   Clear
11:53 AM 69.1 °F - 24.1 °F 18% 30.14 in 10.0 mi ENE 11.5 mph 23.0 mph N/A   Clear
12:53 PM 72.0 °F - 19.0 °F 13% 30.13 in 10.0 mi NE 17.3 mph 25.3 mph N/A   Clear
1:53 PM 73.9 °F - 19.0 °F 13% 30.10 in 10.0 mi ENE 13.8 mph 25.3 mph N/A   Clear
2:53 PM 73.9 °F - 16.0 °F 11% 30.09 in 10.0 mi ENE 19.6 mph 26.5 mph N/A   Clear
3:53 PM 73.9 °F - 15.1 °F 11% 30.07 in 10.0 mi ENE 18.4 mph - N/A   Clear
4:53 PM 73.0 °F - 16.0 °F 11% 30.06 in 10.0 mi ENE 15.0 mph 23.0 mph N/A   Clear
5:53 PM 70.0 °F - 16.0 °F 13% 30.05 in 10.0 mi ENE 19.6 mph 24.2 mph N/A   Clear
6:53 PM 66.9 °F - 18.0 °F 15% 30.05 in 10.0 mi ENE 13.8 mph 20.7 mph N/A   Clear
7:53 PM 64.9 °F - 19.0 °F 17% 30.06 in 10.0 mi ENE 12.7 mph - N/A   Clear
9:53 PM 62.1 °F - 21.0 °F 21% 30.05 in 10.0 mi NE 5.8 mph - N/A   Clear
10:53 PM 59.0 °F - 21.9 °F 24% 30.05 in 10.0 mi North 3.5 mph - N/A   Clear
11:53 PM 60.1 °F - 21.0 °F 22% 30.04 in 10.0 mi NE 4.6 mph - N/A   Clear